| time (UTC) | temp F | wind direction | speed knots | gust knots | rain 1hr in | rain 24hr in | rain mn in | humidity % | barometer mb |
| 20260508150308 | 29 | 69 | 0.9 | 2.6 | 0.00 | 0.00 | 0.00 | 85 | 1009.9 |
| 20260508140309 | 25 | 283 | 0.9 | 1.7 | 0.00 | 0.00 | 0.00 | 91 | 1010.4 |
| 20260508130809 | 24 | 281 | 0.0 | 1.7 | 0.00 | 0.00 | 0.00 | 91 | 1011.0 |
| 20260508130307 | 24 | 280 | 0.0 | 2.6 | 0.00 | 0.00 | 0.00 | 92 | 1011.0 |
| 20260508120807 | 25 | 281 | 0.0 | 1.7 | 0.00 | 0.00 | 0.00 | 90 | 1011.5 |
| 20260508120307 | 25 | 289 | 0.0 | 1.7 | 0.00 | 0.00 | 0.00 | 89 | 1011.6 |
| 20260508110308 | 26 | 280 | 0.9 | 1.7 | 0.00 | 0.00 | 0.00 | 86 | 1012.1 |
| 20260508100808 | 27 | 286 | 1.7 | 1.7 | 0.00 | 0.00 | 0.00 | 85 | 1012.4 |
| 20260508100307 | 27 | 286 | 0.9 | 2.6 | 0.00 | 0.00 | 0.00 | 85 | 1012.4 |
| 20260508090807 | 28 | 244 | 1.7 | 2.6 | 0.00 | 0.00 | 0.00 | 82 | 1012.5 |
| 20260508090307 | 28 | 285 | 1.7 | 2.6 | 0.00 | 0.00 | 0.00 | 82 | 1012.5 |
| 20260508080807 | 30 | 309 | 2.6 | 2.6 | 0.00 | 0.00 | 0.00 | 79 | 1012.9 |
| 20260508080307 | 30 | 281 | 1.7 | 2.6 | 0.00 | 0.00 | 0.00 | 77 | 1012.9 |
| 20260508070815 | 35 | 274 | 2.6 | 2.6 | 0.00 | 0.00 | 0.00 | 67 | 1013.0 |
| 20260508060807 | 38 | 224 | 2.6 | 4.3 | 0.00 | 0.00 | 0.00 | 62 | 1013.0 |
| 20260508060308 | 39 | 259 | 1.7 | 7.0 | 0.00 | 0.00 | 0.00 | 60 | 1013.0 |
| 20260508050307 | 44 | 277 | 6.1 | 7.0 | 0.00 | 0.00 | 0.00 | 54 | 1012.8 |
| 20260508040807 | 48 | 291 | 2.6 | 6.1 | 0.00 | 0.00 | 0.00 | 51 | 1012.5 |
| 20260508020807 | 48 | 32 | 1.7 | 2.6 | 0.00 | 0.00 | 0.00 | 52 | 1013.1 |
| 20260508020308 | 49 | 37 | 1.7 | 7.0 | 0.00 | 0.00 | 0.00 | 52 | 1013.2 |
| 20260508010807 | 51 | 100 | 1.7 | 4.3 | 0.00 | 0.00 | 0.00 | 50 | 1013.4 |
| 20260508010308 | 51 | 200 | 4.3 | 6.1 | 0.00 | 0.00 | 0.00 | 50 | 1013.5 |
| 20260508000807 | 52 | 16 | 0.9 | 4.3 | 0.00 | 0.00 | 0.00 | 51 | 1013.9 |
| 20260508000307 | 51 | 60 | 0.9 | 6.1 | 0.00 | 0.00 | 0.00 | 52 | 1013.9 |
| 20260507230806 | 53 | 306 | 0.9 | 4.3 | 0.00 | 0.00 | 0.00 | 49 | 1014.3 |
| 20260507230308 | 52 | 334 | 1.7 | 7.8 | 0.00 | 0.00 | 0.00 | 50 | 1014.3 |
| 20260507220308 | 50 | 346 | 1.7 | 7.0 | 0.00 | 0.00 | 0.00 | 50 | 1014.8 |
| 20260507210807 | 49 | 34 | 2.6 | 7.0 | 0.00 | 0.00 | 0.00 | 54 | 1015.2 |
| 20260507210307 | 49 | 263 | 2.6 | 7.0 | 0.00 | 0.00 | 0.00 | 53 | 1015.2 |
| 20260507190807 | 45 | 279 | 1.7 | 6.1 | 0.00 | 0.00 | 0.00 | 60 | 1016.0 |
| 20260507180808 | 44 | 340 | 1.7 | 4.3 | 0.00 | 0.00 | 0.00 | 64 | 1016.4 |
| 20260507180307 | 43 | 273 | 4.3 | 7.8 | 0.00 | 0.00 | 0.00 | 62 | 1016.5 |
| 20260507170809 | 41 | 281 | 3.5 | 7.0 | 0.00 | 0.00 | 0.00 | 63 | 1016.9 |
| 20260507160808 | 39 | 278 | 2.6 | 6.1 | 0.00 | 0.00 | 0.00 | 69 | 1017.2 |
| 20260507160307 | 38 | 281 | 2.6 | 5.2 | 0.00 | 0.00 | 0.00 | 69 | 1017.2 |